Location: Bronschhofen
(47.4788°N, 9.0353°E)
Time: 19:41:14
(UTC+00:00)

Cosmos 2084 Rocket - Pass Details

Date: 20 May 2022
Orbit: 497 x 678 km, 62.8° (Epoch: 01 July)

Event Time Altitude Azimuth Distance (km) Brightness Sun altitude
Exits shadow 02:44:07 10° 208° (SSW) 1,717 5.2 -8.6°
Reaches altitude 10° 02:44:07 10° 208° (SSW) 1,717 5.2 -8.6°
Maximum altitude 02:47:53 63° 128° (SE) 563 3.4 -8.1°
Drops below altitude 10° 02:51:38 10° 47° (NE) 1,705 7.6 -7.6°
Sets 02:53:48 0° 44° (NE) 2,596 9.2 -7.3°
